Temperature
17 17 17 17 17 17 17 17 17 16 16 16 16 16 16 16 16 16 16 16 16 15 15 15 15 15 15 15 15 15 14 14 14 14 14 14 14 14 14 14 14 14 14
17 17 17 17 17 17 17 17 17 16 16 16 16 16 16 16 16 16 16 16 15 15 15 15 15 15 15 15 15 14 14 14 14 14 14 14 14 14 14 14 14 14 14
17 17 17 17 17 17 17 17 17 17 16 16 16 16 16 16 16 16 16 16 16 15 15 15 15 15 15 15 15 15 14 14 14 14 14 14 14 14 14 14 14 14 14
17 18 18 17 17 17 17 17 17 17 16 16 16 16 16 16 16 16 16 16 16 15 15 15 15 15 15 15 15 15 15 15 14 14 14 14 14 14 14 14 14 14 14
18 18 18 18 17 17 17 17 17 17 16 16 16 16 16 16 16 16 16 16 15 15 15 15 15 15 15 15 15 15 15 15 15 15 14 14 14 14 14 14 14 14 14
18 18 18 18 18 17 17 17 17 17 16 16 16 16 16 16 16 16 16 15 15 15 15 15 15 15 15 15 15 15 15 15 15 15 15 15 14 14 14 14 14 14 14
18 18 18 18 18 17 17 17 17 17 16 16 16 16 16 16 16 16 15 15 15 15 15 15 15 15 15 15 15 15 15 15 15 15 15 15 14 14 14 14 14 14 13
18 18 18 18 18 18 17 17 17 17 17 16 16 16 16 16 16 16 15 15 15 15 15 15 15 15 15 15 15 15 15 15 15 15 14 14 14 14 14 14 14 14 13
18 18 18 18 18 18 18 17 17 17 17 16 16 16 16 16 16 16 15 15 15 15 15 15 15 15 15 14 14 14 14 14 14 14 14 14 14 14 14 14 14 14 13
18 18 18 18 18 18 18 17 17 17 17 16 16 16 16 16 16 16 15 15 15 15 15 15 15 15 15 14 14 14 14 14 14 14 14 14 14 14 14 14 14 13 13
19 19 19 18 18 18 18 17 17 17 17 16 16 16 16 16 16 16 15 15 15 15 15 15 15 15 15 15 14 14 14 14 14 14 14 14 14 14 14 14 13 13 13
19 19 19 19 18 18 18 17 17 17 17 17 16 16 16 16 16 16 16 15 15 15 15 15 15 15 15 14 14 14 14 14 14 14 14 14 13 13 13 13 13 13 13
19 19 19 19 18 18 18 18 17 17 17 17 16 16 16 16 16 16 15 15 15 15 15 15 15 15 14 14 14 14 14 14 14 14 13 13 13 13 13 13 13 13 13
19 19 19 19 19 18 18 18 18 17 17 17 16 16 16 16 16 15 15 15 15 15 15 15 15 14 14 14 14 14 14 14 13 13 13 13 13 13 13 13 13 13 13
19 19 19 19 19 19 18 18 18 17 17 17 16 16 16 16 16 15 15 15 15 15 15 15 14 14 14 14 14 14 13 13 13 13 13 13 13 13 13 12 12 12 12
20 20 19 19 19 19 18 18 18 17 17 17 16 16 16 16 15 15 15 15 15 15 15 15 14 14 14 14 14 14 13 13 13 13 13 13 13 12 12 12 12 12 12
20 20 20 19 19 19 19 18 18 17 17 17 17 16 16 16 15 15 15 15 15 15 15 15 14 14 14 14 14 13 13 13 13 13 13 12 12 12 12 12 12 12 12
20 20 20 20 19 19 19 18 18 18 17 17 17 16 16 16 15 15 15 15 15 15 15 14 14 14 14 14 13 13 13 13 13 12 12 12 12 12 12 11 11 11 11
21 21 20 20 19 19 19 18 18 18 17 17 17 16 16 16 15 15 15 15 15 15 14 14 14 14 14 13 13 13 13 13 12 12 12 12 12 11 11 11 11 11 11
21 20 20 20 19 19 19 18 18 18 17 17 17 16 16 16 16 15 15 15 15 15 14 14 14 14 14 13 13 13 13 13 12 12 12 12 11 11 11 11 11 11 10
21 20 20 20 20 19 19 19 18 18 18 17 17 16 16 16 15 15 15 15 15 14 14 14 14 14 13 13 13 13 12 12 12 12 12 11 11 11 11 10 10 10 10
21 20 20 20 19 19 19 18 18 18 18 17 17 16 16 16 15 15 15 15 14 14 14 14 14 14 13 13 12 12 12 12 12 12 11 11 11 10 10 10 10 10 9
21 20 20 20 19 19 19 19 18 18 17 17 17 16 16 16 15 15 15 14 14 14 14 14 14 13 13 13 12 12 12 12 11 11 11 11 10 10 10 10 9 9 9
20 20 20 19 19 19 19 19 18 18 17 17 17 16 16 15 15 15 15 14 14 14 14 14 13 13 13 12 12 12 11 11 11 11 11 10 10 10 9 9 9 9 8
20 20 20 19 19 19 18 18 18 18 17 17 17 16 16 15 15 15 14 14 14 14 13 13 13 13 13 12 12 11 11 11 11 10 10 10 10 10 9 9 9 8 8
20 20 19 19 19 19 18 18 18 17 17 17 16 16 16 15 15 14 14 14 13 13 13 13 12 12 12 12 11 11 11 11 10 10 10 10 9 9 9 8 8 8 8
Wind_Speed
5 4 5 5 6 5 5 5 6 4 4 3 2 3 2 2 3 4 6 5 5 6 6 4 4 4 3 3 4 4 5 3 2 3 4 4 5 5 5 5 6 7 9
4 5 5 5 5 6 5 5 6 5 4 3 2 2 2 1 1 3 5 6 5 5 5 5 3 3 4 4 3 3 3 2 3 2 3 3 4 4 5 4 4 5 7
9 7 6 6 6 6 6 6 6 5 4 4 3 4 3 3 3 3 3 5 5 5 6 5 4 3 3 3 2 3 4 2 2 2 3 3 1 2 3 4 4 4 4
8 7 7 7 7 7 6 6 6 5 4 4 4 4 3 1 0 1 1 3 5 5 5 5 5 4 3 3 2 2 2 3 2 2 2 2 3 2 1 3 3 4 4
10 9 9 8 7 7 6 6 6 5 4 4 5 5 3 2 1 1 3 3 4 5 4 4 4 3 3 3 3 3 3 2 3 2 2 2 3 2 3 0 3 3 3
11 10 8 6 6 5 6 6 6 5 4 5 5 5 5 3 3 2 2 2 2 3 4 4 3 3 3 2 2 2 3 2 2 2 2 2 2 2 2 2 0 2 3
11 10 9 8 7 7 7 7 7 5 4 5 4 4 5 5 4 2 2 1 1 1 2 2 2 2 2 3 3 3 3 2 2 2 1 1 1 2 3 3 1 1 2
11 11 11 10 9 9 8 8 8 6 5 5 4 4 4 4 3 2 2 2 1 0 1 2 3 3 3 3 3 3 2 2 2 2 2 2 1 2 2 3 3 1 2
12 11 11 10 10 9 9 10 9 7 6 6 5 4 4 4 3 3 2 2 1 1 2 3 3 3 4 3 3 3 3 3 3 2 2 2 1 1 1 2 3 4 1
11 10 10 10 10 9 8 8 8 8 6 6 5 5 4 4 4 3 3 2 1 2 3 3 3 3 3 3 3 3 2 4 3 2 3 2 1 1 1 2 1 2 3
12 11 10 10 9 8 8 8 7 7 6 6 5 5 4 4 4 3 3 3 2 2 2 3 3 3 3 3 3 3 3 4 3 3 3 3 2 2 2 2 2 2 2
10 10 10 9 9 9 9 9 8 8 7 7 6 5 5 5 4 3 3 3 3 2 2 3 3 3 2 2 3 3 3 3 3 2 3 2 2 3 2 2 2 1 1
8 8 8 9 10 10 10 10 9 9 8 7 7 6 5 5 5 4 4 3 3 2 3 3 3 2 2 2 2 3 3 3 2 2 2 1 3 2 1 2 1 1 1
9 9 9 9 10 10 10 10 9 9 8 8 8 7 6 6 6 5 4 4 4 3 3 2 2 2 2 2 2 3 3 2 2 1 1 1 2 1 1 1 1 1 2
9 10 10 10 9 9 9 9 9 8 9 8 8 8 6 6 5 5 4 4 4 3 3 3 2 2 2 2 3 3 3 2 1 1 1 0 1 1 2 1 1 2 2
9 10 10 10 10 11 10 10 9 9 9 9 8 7 6 6 6 5 4 4 3 3 3 3 2 2 2 3 5 5 3 2 2 0 1 1 1 1 1 1 2 4 3
9 11 11 12 12 11 11 11 11 9 9 9 8 8 8 7 7 6 5 5 4 3 3 3 3 3 3 4 4 5 4 3 2 2 1 0 1 2 2 2 3 2 1
8 9 10 10 10 10 10 10 9 10 10 9 8 8 8 8 7 6 6 5 4 4 3 3 3 3 3 4 5 5 4 2 2 2 2 2 2 1 2 2 1 1 1
8 8 9 9 9 9 9 9 9 9 9 9 9 9 9 9 8 7 6 5 4 4 3 3 4 3 3 4 5 5 3 2 2 2 2 2 2 3 3 3 1 1 2
5 6 6 7 8 8 9 10 10 10 10 10 9 9 9 9 9 8 6 4 4 4 4 3 3 3 3 4 5 5 3 3 2 1 1 2 3 2 3 3 2 2 3
5 6 7 7 8 8 10 10 10 11 11 9 8 8 8 9 8 6 5 5 4 4 3 3 2 2 3 3 4 5 4 4 3 2 2 2 2 3 3 3 3 4 2
5 7 7 6 6 8 11 10 11 10 8 8 8 8 7 7 7 6 5 5 6 5 4 2 1 2 2 3 3 4 5 5 4 3 2 2 2 2 2 2 2 2 1
6 6 7 7 5 7 10 11 9 8 8 8 8 7 7 6 6 7 7 5 5 5 4 3 3 2 2 2 3 4 5 5 3 3 3 3 2 1 0 1 1 1 1
6 6 7 7 6 6 7 8 8 9 9 8 7 7 7 6 5 5 6 6 6 5 5 4 4 3 2 2 2 2 2 3 2 1 1 1 1 1 1 1 1 0 1
5 6 8 8 7 6 6 6 8 9 9 8 7 7 6 6 5 4 4 5 5 7 7 5 5 4 4 5 5 4 3 3 3 2 2 1 1 1 0 1 1 0 0
5 6 7 7 7 7 6 6 7 10 10 8 7 6 5 5 5 5 2 1 2 4 6 6 5 4 5 4 4 4 4 4 5 3 1 1 1 2 2 2 1 1 2
Wind_Direction
208 181 164 152 142 137 136 141 139 137 125 108 100 85 59 30 25 32 45 59 71 79 86 85 76 80 86 98 105 97 82 63 54 76 48 25 34 42 32 31 38 36 37
193 181 167 161 161 161 157 153 154 156 154 138 126 115 107 67 32 23 38 46 62 73 86 88 84 82 92 91 91 102 99 64 43 95 89 30 5 13 24 24 34 29 31
198 191 182 179 171 174 174 171 169 162 150 130 106 83 60 41 28 21 17 20 51 71 82 88 91 88 95 111 109 117 126 132 54 64 124 128 203 331 358 16 24 22 25
198 192 186 183 188 191 180 171 167 157 146 138 135 130 123 122 241 356 6 20 46 63 81 92 95 93 94 102 113 108 120 134 131 68 59 106 147 137 16 350 3 18 23
196 194 192 191 193 185 176 168 159 151 148 149 150 137 130 135 90 47 46 37 33 45 67 85 94 94 92 94 92 94 100 119 138 138 117 86 68 86 132 357 340 357 357
195 194 191 183 183 176 167 161 159 159 157 154 154 152 150 142 119 90 65 38 25 21 43 67 80 88 89 92 94 94 98 100 111 120 129 138 135 144 135 150 291 338 328
188 188 184 183 182 176 174 169 168 168 163 157 157 160 159 156 158 157 141 104 49 17 9 53 78 82 89 95 96 88 84 89 104 121 123 129 139 145 141 136 146 13 327
186 189 188 186 185 181 177 174 177 174 166 162 161 157 153 152 160 160 153 153 159 188 45 70 83 84 87 89 90 77 75 78 88 93 105 109 117 135 143 148 142 92 359
187 190 188 185 184 181 182 182 178 174 173 170 159 155 156 154 159 154 142 147 158 114 90 87 84 80 83 89 91 78 66 74 73 81 88 90 76 104 120 136 147 143 131
188 190 189 187 186 184 181 177 176 177 173 166 163 162 163 164 157 145 151 151 141 101 103 97 88 83 82 89 89 82 72 79 62 68 77 67 53 73 89 115 116 131 153
189 190 191 187 181 174 173 174 175 171 168 168 161 154 160 157 148 152 162 157 144 133 128 127 113 99 90 92 96 90 89 86 69 63 77 65 59 67 70 90 102 108 128
188 188 183 173 172 175 176 178 180 178 178 170 161 164 159 152 152 157 163 155 146 138 130 121 114 110 104 105 112 109 100 99 89 77 81 68 74 65 63 82 95 119 143
181 175 172 176 180 182 182 183 184 183 176 164 162 162 161 161 167 169 162 154 146 137 124 123 131 135 133 129 134 128 116 114 111 105 101 91 91 70 61 72 75 77 92
179 177 182 187 188 186 184 184 186 180 171 165 166 171 178 177 177 170 160 158 153 147 149 152 159 157 150 147 142 128 119 113 101 103 112 120 136 163 147 103 103 98 82
182 185 188 191 188 184 185 184 184 179 172 168 174 183 182 174 166 162 163 157 156 161 162 151 155 157 159 167 157 148 138 132 105 45 1 78 146 159 160 144 157 133 112
194 193 192 190 189 188 187 183 184 180 171 175 184 180 171 168 168 170 164 155 158 160 154 164 170 174 185 165 161 152 146 145 143 149 321 339 9 45 88 130 136 140 143
200 196 195 194 193 191 187 187 186 175 175 181 182 177 175 177 177 171 162 165 169 162 165 181 178 196 211 182 169 166 152 157 173 190 213 339 43 79 86 68 64 65 108
200 199 194 193 191 185 182 180 172 172 178 181 182 179 177 180 175 167 172 177 167 169 183 193 195 201 216 196 184 174 159 166 196 206 204 212 253 180 145 119 81 22 346
202 198 191 184 179 178 173 165 168 171 176 183 186 183 178 176 172 174 181 178 168 179 190 189 191 201 229 206 191 172 157 176 220 231 213 207 223 224 166 138 145 334 320
186 179 169 162 169 174 160 161 169 174 186 191 188 181 177 176 178 183 181 173 174 187 185 192 200 204 227 222 203 181 164 177 213 256 267 236 214 222 182 166 170 226 276
167 155 152 163 175 164 157 165 172 189 194 182 172 171 174 177 178 177 172 165 164 162 170 183 212 217 230 238 217 187 173 183 191 215 256 255 221 221 207 184 190 221 230
151 151 153 162 162 159 160 169 188 193 172 162 166 173 175 176 172 162 163 158 157 159 169 177 229 256 249 238 230 207 196 181 179 208 226 220 199 195 200 193 209 222 151
164 161 158 157 157 166 169 179 191 168 154 157 167 169 164 164 161 161 162 158 160 165 177 181 209 248 257 249 236 223 207 193 188 203 200 195 180 150 49 232 223 190 140
171 163 156 160 171 177 179 185 171 156 154 159 162 157 155 156 159 163 167 169 174 177 183 190 208 230 250 248 230 204 189 179 179 186 157 128 97 94 83 10 354 130 181
171 166 167 172 178 172 173 168 158 153 153 156 156 155 156 156 156 159 174 183 194 189 188 200 196 197 227 236 203 181 187 185 177 139 103 81 72 69 6 339 320 266 224
166 167 170 169 169 161 163 159 154 155 154 155 158 159 157 157 155 150 125 87 169 186 190 189 184 204 215 222 203 193 187 173 154 128 140 185 206 216 226 237 264 259 242
Height
1542 1544 1546 1548 1550 1551 1553 1554 1555 1556 1557 1558 1558 1559 1559 1559 1559 1558 1558 1558 1558 1558 1558 1558 1558 1558 1558 1558 1559 1559 1559 1560 1560 1561 1561 1561 1561 1560 1560 1560 1559 1558 1558
1541 1543 1546 1548 1550 1551 1553 1554 1555 1557 1558 1559 1559 1559 1560 1559 1559 1559 1559 1559 1559 1559 1559 1558 1558 1558 1559 1559 1559 1560 1560 1560 1561 1562 1561 1562 1563 1562 1561 1561 1560 1560 1559
1539 1542 1544 1547 1549 1551 1552 1554 1556 1557 1558 1559 1560 1560 1560 1560 1560 1560 1560 1560 1559 1559 1559 1559 1559 1559 1559 1559 1560 1560 1561 1561 1562 1562 1563 1562 1562 1562 1563 1562 1561 1561 1560
1537 1540 1543 1545 1548 1550 1552 1554 1556 1557 1559 1560 1560 1561 1561 1561 1561 1561 1561 1560 1560 1560 1560 1560 1560 1560 1560 1560 1560 1561 1561 1561 1562 1562 1562 1563 1563 1563 1563 1563 1562 1562 1561
1535 1538 1541 1544 1547 1549 1552 1554 1555 1557 1558 1560 1561 1561 1562 1562 1562 1561 1561 1561 1561 1561 1560 1560 1561 1560 1560 1561 1561 1561 1561 1562 1562 1562 1562 1562 1562 1563 1563 1563 1563 1562 1562
1532 1536 1539 1543 1546 1548 1550 1553 1555 1557 1558 1559 1560 1561 1562 1562 1562 1562 1562 1562 1562 1562 1561 1561 1561 1561 1561 1561 1561 1562 1562 1562 1562 1562 1562 1562 1563 1562 1562 1562 1562 1562 1562
1528 1532 1536 1540 1544 1546 1549 1552 1554 1556 1557 1559 1560 1561 1562 1563 1563 1563 1563 1563 1563 1562 1562 1562 1562 1562 1562 1562 1562 1562 1562 1562 1562 1562 1562 1563 1563 1563 1563 1563 1562 1562 1562
1525 1529 1533 1537 1541 1544 1547 1550 1552 1555 1557 1558 1560 1561 1562 1563 1563 1563 1564 1564 1564 1563 1563 1563 1563 1563 1563 1563 1563 1563 1563 1563 1562 1563 1563 1563 1563 1563 1563 1563 1563 1562 1563
1522 1526 1531 1535 1539 1542 1545 1548 1551 1554 1556 1557 1559 1560 1561 1562 1563 1564 1564 1564 1564 1564 1564 1564 1564 1564 1564 1564 1563 1563 1563 1563 1563 1563 1563 1563 1563 1563 1563 1563 1563 1564 1562
1519 1524 1528 1532 1536 1540 1543 1547 1550 1552 1554 1556 1558 1560 1561 1562 1563 1564 1564 1564 1564 1564 1564 1564 1564 1564 1564 1564 1564 1564 1563 1563 1563 1563 1563 1563 1563 1563 1563 1563 1563 1563 1563
1516 1521 1525 1529 1533 1538 1541 1545 1548 1550 1553 1555 1557 1559 1560 1562 1562 1563 1564 1564 1565 1565 1565 1565 1565 1565 1565 1565 1564 1564 1564 1564 1563 1563 1563 1563 1563 1563 1563 1563 1562 1562 1562
1514 1518 1522 1526 1531 1535 1539 1542 1545 1548 1551 1553 1556 1558 1559 1561 1562 1563 1564 1564 1564 1565 1565 1565 1565 1565 1565 1565 1565 1565 1564 1564 1564 1564 1563 1563 1563 1563 1563 1562 1562 1562 1562
1513 1517 1520 1524 1528 1532 1536 1539 1543 1546 1549 1552 1554 1556 1558 1559 1561 1562 1563 1564 1564 1565 1565 1565 1565 1565 1565 1565 1565 1565 1564 1564 1564 1564 1564 1563 1563 1563 1562 1562 1562 1561 1561
1511 1514 1518 1521 1525 1529 1533 1536 1540 1543 1547 1549 1552 1554 1556 1558 1560 1561 1562 1563 1563 1564 1565 1565 1565 1565 1565 1565 1565 1565 1564 1564 1564 1564 1563 1563 1562 1562 1562 1561 1561 1561 1560
1509 1512 1515 1519 1522 1526 1530 1533 1537 1541 1544 1547 1549 1552 1554 1556 1558 1559 1561 1562 1562 1563 1564 1564 1564 1564 1564 1564 1564 1564 1564 1564 1563 1563 1562 1562 1562 1561 1561 1560 1560 1559 1559
1506 1509 1513 1516 1519 1523 1526 1530 1534 1538 1541 1544 1547 1549 1552 1554 1556 1558 1559 1560 1561 1562 1563 1563 1563 1563 1563 1563 1563 1563 1563 1563 1562 1562 1561 1561 1560 1560 1560 1559 1558 1558 1557
1504 1507 1510 1513 1516 1520 1524 1527 1531 1535 1538 1541 1544 1547 1549 1551 1553 1555 1557 1558 1559 1560 1561 1561 1562 1562 1562 1562 1562 1562 1562 1561 1561 1560 1560 1559 1559 1559 1558 1557 1557 1556 1556
1502 1504 1507 1510 1514 1518 1521 1525 1528 1532 1535 1538 1541 1543 1546 1548 1550 1552 1554 1556 1557 1558 1559 1560 1560 1560 1560 1560 1560 1560 1560 1559 1559 1558 1558 1558 1557 1557 1556 1556 1555 1554 1554
1500 1502 1505 1509 1512 1515 1519 1522 1525 1529 1532 1535 1537 1540 1543 1545 1548 1549 1551 1553 1555 1556 1557 1557 1558 1558 1558 1558 1558 1558 1557 1557 1557 1556 1556 1556 1555 1555 1554 1553 1553 1552 1551
1499 1501 1504 1507 1510 1513 1517 1520 1523 1526 1528 1532 1535 1538 1540 1543 1545 1547 1549 1551 1552 1554 1554 1555 1555 1556 1556 1556 1556 1556 1555 1555 1554 1554 1554 1554 1553 1553 1552 1551 1550 1549 1549
1498 1500 1502 1505 1508 1511 1514 1517 1520 1523 1526 1530 1533 1535 1538 1540 1543 1545 1547 1548 1550 1551 1552 1552 1553 1553 1553 1553 1553 1553 1552 1552 1552 1552 1551 1551 1551 1550 1549 1549 1548 1547 1546
1496 1499 1501 1504 1507 1509 1512 1515 1518 1521 1524 1527 1530 1533 1535 1538 1540 1542 1544 1545 1547 1548 1549 1549 1550 1550 1550 1550 1550 1550 1550 1549 1549 1549 1549 1548 1548 1547 1547 1546 1545 1544 1543
1495 1497 1500 1502 1505 1508 1510 1513 1516 1519 1522 1525 1527 1530 1533 1535 1537 1539 1541 1542 1544 1545 1546 1546 1547 1547 1548 1547 1547 1547 1547 1547 1546 1546 1546 1545 1545 1544 1543 1543 1542 1541 1540
1493 1495 1498 1500 1503 1505 1508 1511 1514 1517 1520 1522 1525 1527 1529 1532 1534 1536 1537 1539 1540 1541 1543 1543 1544 1544 1545 1545 1544 1544 1544 1544 1544 1543 1543 1542 1541 1541 1540 1539 1539 1538 1537
1491 1493 1495 1498 1500 1503 1506 1509 1512 1514 1517 1520 1522 1524 1526 1529 1531 1532 1534 1536 1537 1539 1540 1541 1541 1541 1541 1542 1542 1542 1541 1541 1541 1540 1539 1539 1538 1537 1537 1536 1535 1534 1533
1489 1491 1493 1496 1498 1501 1504 1507 1509 1512 1515 1517 1519 1521 1524 1526 1528 1529 1531 1533 1534 1536 1537 1538 1538 1538 1539 1539 1539 1539 1538 1538 1538 1537 1536 1535 1534 1534 1533 1532 1531 1530 1529